| time (UTC) | temp C | wind direction | speed KPH | gust KPH | rain 1hr cm | rain 24hr cm | rain mn cm | humidity % | barometer mb |
| 20260904043032 | 22 | 13 | 0.0 | 0.0 | 0.81 | 1.40 | 0.91 | 1 | 1010.9 |
| 20260904041524 | 22 | 65 | 0.0 | 1.6 | 0.76 | 1.35 | 0.86 | 1 | 1010.5 |
| 20260904040019 | 22 | 196 | 0.0 | 0.0 | 0.18 | 0.76 | 0.28 | 1 | 1010.8 |
| 20260904034516 | 22 | 227 | 0.0 | 0.0 | 0.03 | 0.61 | 0.13 | 1 | 1010.4 |
| 20260904033011 | 22 | 227 | 0.0 | 0.0 | 0.00 | 0.91 | 0.10 | 1 | 1010.5 |
| 20260904031503 | 22 | 227 | 0.0 | 0.0 | 0.00 | 0.91 | 0.10 | 1 | 1010.5 |
| 20260904030059 | 22 | 227 | 0.0 | 0.0 | 0.00 | 0.91 | 0.10 | 1 | 1010.5 |
| 20260904024556 | 22 | 227 | 0.0 | 0.0 | 0.00 | 0.91 | 0.10 | 1 | 1010.5 |
| 20260904023051 | 22 | 227 | 0.0 | 0.0 | 0.00 | 2.36 | 0.10 | 1 | 1010.5 |
| 20260904021550 | 22 | 227 | 0.0 | 0.0 | 0.00 | 2.36 | 0.10 | 1 | 1010.7 |
| 20260904020048 | 22 | 227 | 0.0 | 0.0 | 0.00 | 2.36 | 0.10 | 1 | 1011.0 |
| 20260904014541 | 22 | 227 | 0.0 | 0.0 | 0.00 | 2.36 | 0.10 | 1 | 1011.0 |
| 20260904013044 | 22 | 227 | 0.0 | 0.0 | 0.00 | 2.44 | 0.10 | 1 | 1011.1 |
| 20260904011544 | 22 | 227 | 0.0 | 0.0 | 0.00 | 2.44 | 0.10 | 1 | 1011.0 |
| 20260904010034 | 22 | 225 | 0.0 | 0.0 | 0.00 | 2.44 | 0.10 | 1 | 1011.1 |
| 20260904004534 | 23 | 225 | 0.0 | 0.0 | 0.00 | 2.44 | 0.10 | 1 | 1011.0 |
| 20260904003029 | 23 | 225 | 0.0 | 0.0 | 0.00 | 2.44 | 0.10 | 1 | 1010.7 |
| 20260904001530 | 23 | 225 | 0.0 | 0.0 | 0.00 | 2.44 | 0.10 | 1 | 1010.7 |
| 20260904000024 | 23 | 225 | 0.0 | 0.0 | 0.00 | 2.44 | 0.10 | 1 | 1010.6 |
| 20260903234519 | 23 | 225 | 0.0 | 0.0 | 0.00 | 2.44 | 0.10 | 1 | 1010.7 |
| 20260903233015 | 24 | 225 | 0.0 | 0.0 | 0.00 | 2.44 | 0.10 | 1 | 1010.6 |
| 20260903231515 | 25 | 225 | 0.0 | 0.0 | 0.00 | 2.44 | 0.10 | 1 | 1010.6 |
| 20260903230015 | 25 | 225 | 0.0 | 0.0 | 0.00 | 2.44 | 0.10 | 1 | 1010.6 |
| 20260903224516 | 26 | 225 | 0.0 | 0.0 | 0.00 | 2.44 | 0.10 | 1 | 1010.4 |
| 20260903223002 | 26 | 225 | 0.0 | 0.0 | 0.00 | 2.44 | 0.10 | 1 | 1010.3 |
| 20260903220056 | 28 | 225 | 0.0 | 0.0 | 0.00 | 2.44 | 0.10 | 1 | 1010.0 |
| 20260903214606 | 28 | 225 | 0.0 | 0.0 | 0.00 | 2.44 | 0.10 | 1 | 1010.0 |
| 20260903213049 | 29 | 224 | 0.0 | 0.0 | 0.00 | 2.44 | 0.10 | 1 | 1010.3 |
| 20260903210045 | 29 | 325 | 0.0 | 0.0 | 0.00 | 2.44 | 0.10 | 1 | 1010.3 |
| 20260903204536 | 29 | 190 | 0.0 | 0.0 | 0.00 | 2.44 | 0.10 | 1 | 1010.5 |
| 20260903203031 | 29 | 196 | 0.0 | 1.6 | 0.00 | 2.44 | 0.10 | 1 | 1010.7 |
| 20260903200018 | 29 | 209 | 0.0 | 1.6 | 0.00 | 2.44 | 0.10 | 1 | 1010.9 |
| 20260903194518 | 29 | 181 | 0.0 | 0.0 | 0.00 | 2.44 | 0.10 | 1 | 1010.7 |
| 20260903193010 | 28 | 221 | 0.0 | 0.0 | 0.00 | 2.44 | 0.10 | 1 | 1010.9 |
| 20260903190009 | 28 | 217 | 0.0 | 0.0 | 0.00 | 2.44 | 0.10 | 1 | 1011.4 |
| 20260903184506 | 28 | 203 | 0.0 | 0.0 | 0.00 | 2.44 | 0.10 | 1 | 1011.5 |
| 20260903183002 | 28 | 229 | 0.0 | 0.0 | 0.00 | 2.44 | 0.10 | 1 | 1011.5 |
| 20260903180054 | 27 | 173 | 0.0 | 0.0 | 0.00 | 2.44 | 0.10 | 1 | 1011.8 |
| 20260903174550 | 27 | 206 | 0.0 | 0.0 | 0.00 | 2.44 | 0.10 | 1 | 1011.8 |
| 20260903173045 | 26 | 205 | 0.0 | 0.0 | 0.00 | 2.46 | 0.10 | 1 | 1011.9 |
| 20260903170046 | 26 | 211 | 0.0 | 0.0 | 0.00 | 2.46 | 0.10 | 1 | 1012.1 |
| 20260903164530 | 25 | 315 | 0.0 | 0.0 | 0.00 | 2.46 | 0.10 | 1 | 1012.1 |
| 20260903163026 | 25 | 185 | 0.0 | 0.0 | 0.00 | 2.49 | 0.10 | 1 | 1012.3 |
| 20260903160019 | 23 | 155 | 0.0 | 0.0 | 0.00 | 2.49 | 0.10 | 1 | 1012.7 |
| 20260903154512 | 22 | 238 | 0.0 | 0.0 | 0.00 | 2.49 | 0.10 | 1 | 1013.0 |
| 20260903153007 | 22 | 186 | 0.0 | 0.0 | 0.00 | 2.62 | 0.10 | 1 | 1013.1 |
| 20260903150013 | 22 | 183 | 0.0 | 0.0 | 0.00 | 2.62 | 0.10 | 1 | 1013.0 |
| 20260903144516 | 21 | 162 | 0.0 | 0.0 | 0.00 | 2.62 | 0.10 | 1 | 1012.9 |
| 20260903143004 | 21 | 230 | 0.0 | 0.0 | 0.00 | 4.22 | 0.10 | 1 | 1013.0 |
| 20260903140002 | 21 | 183 | 0.0 | 1.6 | 0.00 | 4.22 | 0.10 | 1 | 1013.1 |
| 20260903134603 | 21 | 194 | 0.0 | 0.0 | 0.00 | 4.22 | 0.10 | 1 | 1012.9 |
| 20260903133053 | 21 | 215 | 0.0 | 0.0 | 0.00 | 4.22 | 0.10 | 1 | 1012.8 |
| 20260903130042 | 20 | 228 | 0.0 | 0.0 | 0.00 | 4.22 | 0.10 | 1 | 1013.0 |
| 20260903124538 | 20 | 228 | 0.0 | 0.0 | 0.00 | 4.22 | 0.10 | 1 | 1013.0 |
| 20260903123034 | 20 | 228 | 0.0 | 0.0 | 0.00 | 4.22 | 0.10 | 1 | 1013.0 |
| 20260903120033 | 19 | 228 | 0.0 | 0.0 | 0.00 | 4.22 | 0.10 | 1 | 1012.6 |
| 20260903114528 | 18 | 227 | 0.0 | 0.0 | 0.00 | 4.22 | 0.10 | 1 | 1012.6 |
| 20260903113023 | 18 | 227 | 0.0 | 0.0 | 0.00 | 4.22 | 0.10 | 1 | 1012.6 |
| 20260903110058 | 18 | 227 | 0.0 | 0.0 | 0.00 | 4.22 | 0.10 | 1 | 1012.3 |
| 20260903104613 | 18 | 227 | 0.0 | 0.0 | 0.00 | 4.22 | 0.10 | 1 | 1012.5 |
| 20260903103102 | 18 | 227 | 0.0 | 0.0 | 0.03 | 4.22 | 0.10 | 1 | 1012.4 |
| 20260903101652 | 18 | 227 | 0.0 | 0.0 | 0.05 | 4.22 | 0.10 | 1 | 1012.5 |
| 20260903100047 | 18 | 227 | 0.0 | 0.0 | 0.05 | 4.22 | 0.10 | 1 | 1012.4 |
| 20260903094546 | 18 | 227 | 0.0 | 0.0 | 0.05 | 4.22 | 0.10 | 1 | 1012.5 |
| 20260903093047 | 18 | 227 | 0.0 | 0.0 | 0.05 | 4.22 | 0.10 | 1 | 1012.7 |
| 20260903091634 | 18 | 227 | 0.0 | 0.0 | 0.00 | 4.17 | 0.05 | 1 | 1012.7 |
| 20260903090038 | 18 | 227 | 0.0 | 0.0 | 0.00 | 4.17 | 0.05 | 1 | 1012.7 |
| 20260903084543 | 18 | 227 | 0.0 | 0.0 | 0.00 | 4.17 | 0.05 | 1 | 1012.5 |
| 20260903083030 | 18 | 227 | 0.0 | 0.0 | 0.00 | 4.17 | 0.05 | 1 | 1012.4 |
| 20260903081635 | 18 | 227 | 0.0 | 0.0 | 0.00 | 4.17 | 0.05 | 1 | 1012.7 |
| 20260903080015 | 18 | 227 | 0.0 | 0.0 | 0.00 | 4.17 | 0.05 | 1 | 1012.6 |
| 20260903074511 | 18 | 227 | 0.0 | 0.0 | 0.00 | 4.17 | 0.05 | 1 | 1012.5 |
| 20260903073007 | 18 | 227 | 0.0 | 0.0 | 0.00 | 4.19 | 0.05 | 1 | 1012.5 |
| 20260903071603 | 18 | 227 | 0.0 | 0.0 | 0.00 | 4.19 | 0.05 | 1 | 1012.7 |
| 20260903070056 | 18 | 227 | 0.0 | 0.0 | 0.00 | 4.19 | 0.05 | 1 | 1012.5 |
| 20260903064554 | 18 | 227 | 0.0 | 0.0 | 0.00 | 4.19 | 0.05 | 1 | 1012.4 |
| 20260903063052 | 18 | 181 | 0.0 | 0.0 | 0.00 | 4.19 | 0.05 | 1 | 1012.6 |
| 20260903061544 | 18 | 279 | 0.0 | 0.0 | 0.00 | 4.19 | 0.05 | 1 | 1013.1 |
| 20260903060043 | 19 | 317 | 0.0 | 0.0 | 0.03 | 4.19 | 0.05 | 1 | 1013.2 |
| 20260903054537 | 19 | 256 | 0.0 | 0.0 | 0.05 | 4.19 | 0.05 | 1 | 1013.1 |
| 20260903053036 | 19 | 256 | 0.0 | 0.0 | 0.10 | 4.19 | 0.05 | 1 | 1012.9 |
| 20260903051528 | 19 | 256 | 0.0 | 0.0 | 0.23 | 4.19 | 0.05 | 1 | 1013.1 |
| 20260903050038 | 19 | 192 | 0.0 | 0.0 | 0.48 | 4.17 | 0.03 | 1 | 1013.0 |
| 20260903044520 | 20 | 197 | 0.0 | 0.0 | 0.48 | 4.14 | 0.00 | 1 | 1012.9 |